Tracking 25612 objects as of 19-May-2022
HD Live streaming from Space Station
objects crossing your sky now

COSMOS 2251 DEB

Track COSMOS 2251 DEB now!
10-day predictions


NORAD ID: 36459
Int'l Code: 1993-036BBJ
Perigee: 751.8 km
Apogee: 966.1 km
Inclination: 74.1 °
Period: 102.0 minutes
Semi major axis: 7229 km
RCS: 0.0054 m2 (small)
Launch date: June 16, 1993
Source: Commonwealth of Independent States (former USSR) (CIS)
Launch site: PLESETSK MISSILE AND SPACE COMPLEX (PKMTR)

Note: This is SATELLITE DEBRIS
aabbcc
Your satellite tracking list
Your tracking list is empty




NASA's NSSDC Master Catalog

Two Line Element Set (TLE):
1 36459U 93036BBJ 22136.79425255  .00002297  00000-0  11388-2 0  9994
2 36459  74.0514 167.1615 0148221 218.1749 140.8822 14.12213033424080
Source of the keplerian elements: AFSPC